Regional Weather Roundup
Issued by NWS

Home | Current Version | Previous Version | Text Only | Print | Product List | Glossary Off
Versions: 1 2 3 4 5 6 7 8 9 10 11 12 13 14 15 16 17 18 19 20 21 22 23 24 25 26 27 28 29 30 31 32 33 34 35 36 37 38 39 40 41 42 43 44 45 46 47 48 49 50

000
ASUS43 KMPX 251610
RWRMN
WEATHER ROUNDUP FOR MINNESOTA
NATIONAL WEATHER SERVICE TWIN CITIES/CHANHASSEN MN
1100 AM CDT WED APR 25 2018


NOTE: "FAIR" INDICATES FEW OR NO CLOUDS BELOW 12,000 FEET WITH NO
SIGNIFICANT WEATHER AND/OR OBSTRUCTIONS TO VISIBILITY. N/A MEANS
CURRENT SKY AND/OR WEATHER CONDITIONS ARE NOT AVAILABLE.

MNZ060>063-068>070-251700-
   Twin Cities Metro

CITY           SKY/WX    TMP DP  RH WIND       PRES   REMARKS
TWIN CITIES    FAIR      47  27  45 CALM      30.24F
ST PAUL        FAIR      46  26  45 SW3       30.24F
CRYSTAL        FAIR      47  23  38 CALM      30.23F
BLAINE         SUNNY     46  27  46 CALM      30.23F
LAKEVILLE      FAIR      46  28  49 CALM      30.23F
EDEN PRAIRIE   FAIR      48  27  44 E6        30.23F
SOUTH ST PAUL  FAIR      47  26  44 CALM      30.23F
LAKE ELMO      FAIR      45  30  57 S5        30.24F
$$
MNZ001>005-007-008-013>017-022>024-027-028-251700-
   Northwest Minnesota

CITY           SKY/WX    TMP DP  RH WIND       PRES   REMARKS
BEMIDJI        FAIR      49  24  37 SW9       30.16F
HALLOCK        FAIR      57  34  41 SW15G21   30.03F
ROSEAU         FAIR      54  36  50 S18G24    30.05F
WARROAD        FAIR      54  36  50 SW16G24   30.06F
THIEF RVR FALL FAIR      51  33  50 SW18      30.11F
CROOKSTON      FAIR      54  36  50 SW17      30.12F
FOSSTON        FAIR      46  30  53 S17       30.16F
DETROIT LAKES  FAIR      46  28  49 SW10      30.20F
MOORHEAD       FAIR      50  32  50 S14G20    30.19F
PARK RAPIDS    FAIR      49  25  39 SW8       30.18F
MAHNOMEN       FAIR      48  30  50 SW18      30.16F
$$
MNZ006-009>011-018-025>026-251700-
   North Central Minnesota

CITY           SKY/WX    TMP DP  RH WIND       PRES   REMARKS
BAUDETTE       FAIR      53  28  38 SW18G25   30.08F
FLAG ISLAND    FAIR      37  30  75 S16       30.03F
INTL FALLS     FAIR      50  23  34 SW12      30.12F
WASKISH        PTSUNNY   48  28  46 SW10      30.13F
BIG FORK       FAIR      48  27  43 S7        30.16F
LONGVILLE      FAIR      46  21  36 SW8       30.19F
GRAND RAPIDS   FAIR      47  23  38 VRB6      30.20F
CRANE LAKE     FAIR      45  19  36 CALM      30.18F
ORR            FAIR      46  18  31 CALM      30.14F
COOK           FAIR      45  21  39 SW8       30.17F
WALKER         FAIR      46  23  40 SW6       30.17F
$$
MNZ012-019>021-037-251700-
   Northeast Minnesota

CITY           SKY/WX    TMP DP  RH WIND       PRES   REMARKS
DULUTH         FAIR      45  24  43 NW3       30.18F
ELY            FAIR      43  19  39 W7        30.17F
HIBBING        FAIR      44  22  41 CALM      30.18F
EVELETH        FAIR      44  22  41 SW3       30.19F
DULUTH HARBOR  FAIR      39  28  65 NE5       30.23F
TWO HARBORS    FAIR      48  30  49 S7        30.18F
SILVER BAY     FAIR      45  25  45 SE7       30.17F
GRAND MARAIS     N/A     38  29  70 SW5       30.21F
G MARAIS ARPRT FAIR      41  18  38 SE8       30.16F
$$
MNZ029>031-032-039>041-046>048-054>057-064-251700-
   West Central Minnesota

CITY           SKY/WX    TMP DP  RH WIND       PRES   REMARKS
FERGUS FALLS   FAIR      48  28  46 SW10      30.21S
WHEATON        SUNNY     48  28  46 S7        30.24F
MORRIS         SUNNY     46  30  53 SW9       30.23F
ALEXANDRIA     FAIR      48  25  40 W9        30.23F
ELBOW LAKE     FAIR      46  29  53 SW8       30.24F
WADENA         FAIR      46  27  46 SW7       30.20F
GLENWOOD       FAIR      46  27  46 S5        30.24F
APPLETON       SUNNY     46  27  46 S7        30.25F
BENSON         SUNNY     46  25  42 W7        30.26F
ORTONVILLE     SUNNY     48  27  43 SW6       30.24F
WILLMAR        FAIR      45  28  53 W5        30.27F
$$
MNZ033>034-036-042>043-049>051-058-059-251700-
   Central Minnesota

CITY           SKY/WX    TMP DP  RH WIND       PRES   REMARKS
ST CLOUD       FAIR      45  24  43 SW5       30.23F
SAUK CENTRE    FAIR      43  26  49 W5        30.24F
PAYNESVILLE    FAIR      45  26  48 S6        30.24F
AITKIN         FAIR      45  21  39 W3        30.20S
PINE RIVER     FAIR      45  25  45 S8        30.23F
BRAINERD       FAIR      46  22  38 W6        30.22F
STAPLES        FAIR      46  21  36 SW7       30.21F
LONG PRAIRIE   FAIR      43  23  45 SE5       30.23F
LITTLE FALLS   FAIR      45  16  31 S6        30.23F
LITCHFIELD     FAIR      46  28  49 CALM      30.25S
BUFFALO        FAIR      44  26  48 CALM      30.25F
MAPLE LAKE     FAIR      46  29  52 SE3       30.25F
HUTCHINSON     FAIR      46  31  55 CALM      30.25F
$$
MNZ037-044-045-052-053-251700-
   East Central Minnesota

CITY           SKY/WX    TMP DP  RH WIND       PRES   REMARKS
PRINCETON      FAIR      48  25  40 SW5       30.24F
MORA           FAIR      45  25  45 CALM      30.24F
CAMBRIDGE      FAIR      46  28  49 S5        30.23F
RUSH CITY      FAIR      44  25  48 W6        30.23F
MOOSE LAKE     FAIR      45  23  42 CALM      30.20S
HINCKLEY       FAIR      45  27  49 CALM      30.22F
CLOQUET        FAIR      45  18  33 CALM      30.19F
MCGREGOR       FAIR      45  25  45 S5        30.21F
$$
MNZ071>073-080-081-089-090-097-098-251700-
   Southwest Minnesota

CITY           SKY/WX    TMP DP  RH WIND       PRES   REMARKS
MONTEVIDEO     SUNNY     48  28  46 SW3       30.26F
GRANITE FALLS  SUNNY     45  32  60 SW7       30.27F
CANBY          SUNNY     48  29  47 SW6       30.26F
REDWOOD FALLS  SUNNY     46  30  53 SW3       30.25F
OLIVIA         SUNNY     45  30  57 SW3       30.25S
PIPESTONE      SUNNY    N/A N/A N/A NW3       30.24F
WINDOM         SUNNY     46  25  42 NW3       30.24F
WORTHINGTON    SUNNY     45  32  60 VRB6      30.25F
JACKSON        SUNNY     45  34  65 N3        30.24F
TRACY          SUNNY     44  33  65 NW6       30.25F
SLAYTON        SUNNY     43  32  65 NW6       30.25F
$$
MNZ065>067-074>077-082>085-091>093-251700-
   South Central Minnesota

CITY           SKY/WX    TMP DP  RH WIND       PRES   REMARKS
MANKATO        FAIR      46  30  53 VRB6      30.25F
NEW ULM        SUNNY     45  28  53 CALM      30.25F
ST JAMES       SUNNY     45  34  65 NW3       30.26F
FAIRMONT       SUNNY     44  35  70 N7        30.24F
GLENCOE        FAIR      46  31  55 CALM      30.24F
OWATONNA       FAIR      46  30  53 CALM      30.22F
WASECA         FAIR      45  32  61 CALM      30.24F
ALBERT LEA     FAIR      48  32  53 N7        30.21F
$$
MNZ078>079-086>088-094>096-251700-
   Southeast Minnesota

CITY           SKY/WX    TMP DP  RH WIND       PRES   REMARKS
ROCHESTER      FAIR      49  33  54 VRB5      30.21F
RED WING       FAIR      48  25  40 SW6       30.22S
STANTON        FAIR      47  30  53 N5        30.22S
DODGE CENTER   FAIR      46  30  53 NW3       30.21S
WINONA         FAIR      48  32  53 CALM      30.19F
AUSTIN         FAIR      46  36  66 N6        30.20F
PRESTON        FAIR      47  33  57 NW7       30.20F
$$
ABBREVIATIONS USED IN REMARKS
   TC - TEMPERATURES IN CELSIUS
  WCI - WIND CHILL INDEX
   HX - HEAT INDEX
  VSB - VISIBILITY
$$




USA.gov is the U.S. government's official web portal to all federal, state and local government web resources and services.